Other Surface Observations
Issued by NWS Tucson, AZ

Home | Current Version | Previous Version | Text Only | Print | Product List | Glossary On
Versions: 1 2 3 4 5 6 7 8 9 10 11 12 13 14 15 16 17 18 19 20 21 22 23 24 25 26 27 28 29 30 31 32 33 34 35 36 37 38 39 40 41 42 43 44 45 46 47 48 49 50
000
SXUS55 KTWC 170615
OSOTWC

WEATHER ROUNDUP FOR SOUTHEAST ARIZONA
NATIONAL WEATHER SERVICE TUCSON AZ
1115 PM MST SAT DEC 16 2017

AZZ504>506-514-170715-
LOCATION       SKY/WX    TMP DP  RH WIND       PRES   REMARKS
TUCSON         CLEAR     56  24  29 E8        29.85R
DAVIS-MONTHAN  MOCLDY    53  23  31 SE9       29.83R
CHILDRENS PARK N/A      N/A N/A  26 SE6               PIMA CO DEQ
ALVERNON/22ND  N/A       58 N/A N/A E4                PIMA CO DEQ
CHERRY/GLENN   N/A       58 N/A N/A SE5               PIMA CO DEQ
TANGERINE      N/A       57 N/A N/A E5                PIMA CO DEQ
CONTL RANCH    N/A       56  24  29 S4                PIMA CO DEQ
GRANT/1ST      N/A       57  22  26 E5                PIMA CO DEQ
CRAYCROFT/22ND N/A       57  23  27 E4                PIMA CO DEQ
GOLFLINKS/KOLB N/A       56  23  27 E3                PIMA CO DEQ
AJO/12TH       N/A       58  26  29 SE4               PIMA CO DEQ
FAIRGROUNDS    N/A       56 N/A N/A SE8               PIMA CO DEQ
SAGUARO        N/A       55  22  28 N2                *SABINO CYN
SAN CARLOS     N/A       42  16  35 CALM              *SAN CARLOS
GREEN VALLEY   N/A       55  29  37 S5                PIMA CO DEQ
HORSE CAMP CYN N/A       49  16  27 E9                *ARAVAIPA CYN
RINCON MTNS    N/A       34  25  71 SE3               *NR MANNING CAMP
$$

AZZ509>511-170715-
LOCATION       SKY/WX    TMP DP  RH WIND       PRES   REMARKS
SAFFORD        MOCLDY    40  14  34 CALM      29.87F
STRAY HORSE    N/A       35   9  34 W5G12             *
TRAIL CABIN    N/A       38  12  34 SW2               *N OF GRANVILLE
BLACK HILLS    NOT AVBL
DRY LAKE       N/A       36  12  37 S5G10             *NATANES MTNS
NOON CREEK     N/A       42  14  32 E2                *PINALENO MTNS
COLUMBINE      N/A       26  15  63 SW4G14            *PINALENO MTNS
GUTHRIE        N/A       41  13  32 S9                *SW OF GUTHRIE
$$

AZZ502-503-513-170715-
LOCATION       SKY/WX    TMP DP  RH WIND       PRES   REMARKS
NOGALES        CLEAR     51  37  58 S14       29.87R
SELLS          N/A       58  30  34 SE9G15            *
SASABE         N/A       52  31  45 SW7G10            *ALTAR VLY
HOPKINS        N/A       38  32  79 S9G18             *SANTA RITA MTNS
CARR CYN       N/A       47  35  63 SE3G10            *W OF HEREFORD
$$

AZZ507-508-512-170715-
LOCATION       SKY/WX    TMP DP  RH WIND       PRES   REMARKS
SIERRA VISTA   CLOUDY    50  33  51 SE8       29.90S
DOUGLAS        CLOUDY    48  38  68 E8        29.92R
EMPIRE MTNS    NOT AVBL
MULESHOE RANCH N/A       44  17  34 CALM              *PRESERVE
HEADQUARTERS   N/A       45  21  38 CALM              *CHIRICAHUA MTNS
$$

.............................NOTES.............................
THIS IS AN AUTOMATED COLLECTIVE WITH MINIMAL QUALITY CONTROL.
PIMA CO DEQ SITES HAVE NONSTANDARD WIND SENSOR HEIGHTS.
PIMA CO DEQ SITES DO NOT REPORT WIND GUSTS.
* INDICATES WIND SENSORS LOCATED AT 20 FEET INSTEAD OF 33 FEET.
..............................KEY..............................
SKY/WX - SKY CONDITION/WEATHER
TMP    - TEMPERATURE IN FAHRENHEIT
DP     - DEWPOINT IN FAHRENHEIT
RH     - RELATIVE HUMIDITY IN PERCENT
WIND   - DIRECTION AND SPEED IN MILES PER HOUR (MPH)
VRB    - VARIABLE WIND DIRECTION
PRES   - MEAN SEA LEVEL PRESSURE IN INCHES OF MERCURY
         F - FALLING PRESSURE   R - RISING PRESSURE
         S - STEADY PRESSURE
VSB    - VISIBILITY IN MILES
HX     - HEAT INDEX IN FAHRENHEIT
WCI    - WIND CHILL INDEX IN FAHRENHEIT
N/A    - NOT AVAILABLE
AFB    - AIR FORCE BASE
         DAVIS-MONTHAN IS DAVIS-MONTHAN AIR FORCE BASE
CYN    - CANYON
MTNS   - MOUNTAINS
NCA    - NATIONAL CONSERVATION AREA
NR     - NEAR
VLY    - VALLEY
CONTL  - CONTINENTAL
PIMA CO DEQ - PIMA COUNTY DEPT OF ENVIRONMENTAL QUALITY



USA.gov is the U.S. government's official web portal to all federal, state and local government web resources and services.